sat.trackr.live / text

‹ back to catalog

STARLINK-37502

NORAD 69263 · 2026-117AB

PAYLOAD ACTIVE UNKNOWN

§ Identity

Operator
Country
US
Launch date
2026-05-29
Launch site
AFETR
Launch vehicle
Mass (kg)
RCS (m²)

Purposes: comms

External: N2YO · Heavens-Above · Gunter

§ Orbital elements

Epoch: 2026-09-19T04:34:09.182784Z

Period
93.85 min
Inclination
53.1570°
Eccentricity
0.0001476
Mean motion
15.34397524 rev/d
Perigee alt
461.7 km
Apogee alt
463.7 km
Semi-major
6,840.8 km
B*
4.6893e-4
RAAN
160.0267°
Arg perigee
87.4984°
Mean anomaly
272.6187°
Rev number
1,746

§ Raw data

STARLINK-375021 69263U 26117AB  26262.19038406  .00015499  00000+0  46893-3 0  99922 69263  53.1570 160.0267 0001476  87.4984 272.6187 15.34397524 17463

JSON: /api/v1/satellites/69263 · /tle

For live sub-satellite position, see the globe view (requires WebGL).

§ Visibility from observer

Set your observer location to see the next 7 days of passes ≥ 10°. The values pass through the URL so the page stays shareable.

No JS? Fill the form by hand. The geolocation button needs JavaScript.